Time,TemperatureF,DewpointF,PressureIn,WindDirection,WindDirectionDegrees,WindSpeedMPH,WindSpeedGustMPH,Humidity,HourlyPrecipIn,Conditions,Clouds,dailyrainin,SoftwareType,DateUTC
2014-02-15 00:01:00,19.7,13.6,29.78,West,260,4.8,5.6,77,0.00,,OVC035,0.00,VWS V14.01,2014-02-15 05:01:00,
2014-02-15 00:02:00,19.7,13.6,29.78,West,272,4.8,6.4,77,0.00,,OVC035,0.00,VWS V14.01,2014-02-15 05:02:00,
2014-02-15 00:04:00,19.7,14.0,29.78,West,272,4.8,7.2,78,0.00,,OVC035,0.00,VWS V14.01,2014-02-15 05:04:00,
2014-02-15 00:06:00,19.7,14.0,29.78,West,281,5.6,7.2,78,0.00,,OVC035,0.00,VWS V14.01,2014-02-15 05:06:00,
2014-02-15 00:08:00,19.7,14.0,29.78,West,275,5.6,7.2,78,0.00,,OVC035,0.00,VWS V14.01,2014-02-15 05:08:00,
2014-02-15 00:13:00,19.7,14.0,29.78,West,269,4.8,6.4,78,0.00,,OVC035,0.00,VWS V14.01,2014-02-15 05:13:00,
2014-02-15 00:18:00,19.5,13.8,29.78,West,265,6.4,8.9,78,0.00,,OVC035,0.00,VWS V14.01,2014-02-15 05:18:00,
2014-02-15 00:23:00,19.5,13.8,29.81,WNW,282,4.0,6.4,78,0.00,,OVC035,0.00,VWS V14.01,2014-02-15 05:23:00,
2014-02-15 00:28:00,19.3,13.6,29.81,West,272,4.8,6.4,78,0.00,,OVC035,0.00,VWS V14.01,2014-02-15 05:28:00,
2014-02-15 00:31:00,19.3,13.6,29.81,West,272,4.8,6.4,78,0.00,,OVC035,0.00,VWS V14.01,2014-02-15 05:31:00,
2014-02-15 00:36:00,19.2,13.4,29.81,WNW,283,4.8,5.6,78,0.00,,OVC035,0.00,VWS V14.01,2014-02-15 05:36:00,
2014-02-15 00:41:00,19.2,13.4,29.81,West,281,0.0,6.4,78,0.00,,OVC035,0.00,VWS V14.01,2014-02-15 05:41:00,
2014-02-15 00:46:00,19.0,13.3,29.81,West,276,6.4,6.4,78,0.00,,OVC035,0.00,VWS V14.01,2014-02-15 05:46:00,
2014-02-15 00:51:00,19.0,13.3,29.81,West,281,6.4,6.4,78,0.00,,OVC035,0.00,VWS V14.01,2014-02-15 05:51:00,
2014-02-15 00:56:00,19.0,13.3,29.81,WNW,282,4.8,6.4,78,0.00,,OVC035,0.00,VWS V14.01,2014-02-15 05:56:00,
2014-02-15 01:01:00,19.0,13.3,29.81,NW,312,4.8,5.6,78,0.00,,,0.00,VWS V14.01,2014-02-15 06:01:00,
2014-02-15 01:06:00,19.2,13.4,29.81,West,275,6.4,8.1,78,0.00,,,0.00,VWS V14.01,2014-02-15 06:06:00,
2014-02-15 01:11:00,19.2,13.4,29.81,West,280,7.2,7.2,78,0.00,,,0.00,VWS V14.01,2014-02-15 06:11:00,
2014-02-15 01:16:00,19.3,14.0,29.81,WNW,295,10.5,10.5,79,0.00,,,0.00,VWS V14.01,2014-02-15 06:16:00,
2014-02-15 01:21:00,19.3,14.0,29.81,WNW,299,5.6,7.2,79,0.00,,,0.00,VWS V14.01,2014-02-15 06:21:00,
2014-02-15 01:26:00,19.5,14.1,29.81,West,272,5.6,7.2,79,0.00,,,0.00,VWS V14.01,2014-02-15 06:26:00,
2014-02-15 01:31:00,19.5,14.1,29.81,West,274,5.6,6.4,79,0.00,,,0.00,VWS V14.01,2014-02-15 06:31:00,
2014-02-15 01:36:00,19.5,14.1,29.81,West,268,4.8,7.2,79,0.00,,,0.00,VWS V14.01,2014-02-15 06:36:00,
2014-02-15 01:41:00,19.5,14.1,29.81,WNW,286,7.2,10.5,79,0.00,,,0.00,VWS V14.01,2014-02-15 06:41:00,
2014-02-15 01:46:00,19.7,14.3,29.81,NW,304,7.2,9.7,79,0.00,,,0.00,VWS V14.01,2014-02-15 06:46:00,
2014-02-15 01:51:00,19.7,14.3,29.81,NNW,331,7.2,8.9,79,0.00,,,0.00,VWS V14.01,2014-02-15 06:51:00,
2014-02-15 01:56:00,19.5,14.1,29.81,NW,308,11.3,11.3,79,0.00,,,0.00,VWS V14.01,2014-02-15 06:56:00,
2014-02-15 02:01:00,19.2,13.8,29.81,WNW,283,9.7,11.3,79,0.00,,OVC032,0.00,VWS V14.01,2014-02-15 07:01:00,
2014-02-15 02:06:00,18.8,13.4,29.81,WNW,292,9.7,12.9,79,0.00,,OVC032,0.00,VWS V14.01,2014-02-15 07:06:00,
2014-02-15 02:11:00,18.4,13.1,29.81,WNW,282,10.5,10.5,79,0.00,,OVC032,0.00,VWS V14.01,2014-02-15 07:11:00,
2014-02-15 02:16:00,17.9,12.6,29.81,WNW,293,7.2,11.3,79,0.00,,OVC032,0.00,VWS V14.01,2014-02-15 07:16:00,
2014-02-15 02:22:00,17.5,12.2,29.84,WNW,290,7.2,10.5,79,0.00,,OVC032,0.00,VWS V14.01,2014-02-15 07:22:00,
2014-02-15 02:27:00,17.2,11.9,29.84,WNW,299,4.0,6.4,79,0.00,,OVC032,0.00,VWS V14.01,2014-02-15 07:27:00,
2014-02-15 02:32:00,16.8,11.5,29.84,NW,315,9.7,9.7,79,0.00,,OVC032,0.00,VWS V14.01,2014-02-15 07:32:00,
2014-02-15 02:37:00,16.3,10.6,29.84,WNW,282,4.8,6.4,78,0.00,,OVC032,0.00,VWS V14.01,2014-02-15 07:37:00,
2014-02-15 02:42:00,15.9,10.3,29.84,NW,308,8.9,8.9,78,0.00,,OVC032,0.00,VWS V14.01,2014-02-15 07:42:00,
2014-02-15 02:47:00,15.4,9.8,29.84,NW,324,6.4,8.9,78,0.00,,OVC032,0.00,VWS V14.01,2014-02-15 07:47:00,
2014-02-15 02:52:00,15.0,9.4,29.84,West,272,6.4,11.3,78,0.00,,OVC032,0.00,VWS V14.01,2014-02-15 07:52:00,
2014-02-15 02:57:00,14.7,9.1,29.84,West,279,6.4,11.3,78,0.00,,OVC032,0.00,VWS V14.01,2014-02-15 07:57:00,
2014-02-15 03:02:00,14.5,8.9,29.84,WNW,298,5.6,6.4,78,0.00,,SCT019,0.00,VWS V14.01,2014-02-15 08:02:00,
2014-02-15 03:07:00,14.1,8.6,29.84,WNW,298,5.6,9.7,78,0.00,,SCT019,0.00,VWS V14.01,2014-02-15 08:07:00,
2014-02-15 03:12:00,13.8,8.2,29.84,WNW,300,5.6,5.6,78,0.00,,SCT019,0.00,VWS V14.01,2014-02-15 08:12:00,
2014-02-15 03:17:00,13.2,7.7,29.84,WNW,288,8.9,10.5,78,0.00,,SCT019,0.00,VWS V14.01,2014-02-15 08:17:00,
2014-02-15 03:22:00,13.0,7.5,29.84,NW,315,8.9,12.1,78,0.00,,SCT019,0.00,VWS V14.01,2014-02-15 08:22:00,
2014-02-15 03:27:00,12.7,7.2,29.84,WNW,282,5.6,8.9,78,0.00,,SCT019,0.00,VWS V14.01,2014-02-15 08:27:00,
2014-02-15 03:32:00,12.3,6.8,29.84,WNW,299,8.1,10.5,78,0.00,,SCT019,0.00,VWS V14.01,2014-02-15 08:32:00,
2014-02-15 03:37:00,12.1,6.6,29.87,West,280,7.2,11.3,78,0.00,,SCT019,0.00,VWS V14.01,2014-02-15 08:37:00,
2014-02-15 03:42:00,12.0,6.4,29.87,WNW,294,4.8,6.4,78,0.00,,SCT019,0.00,VWS V14.01,2014-02-15 08:42:00,
2014-02-15 03:47:00,11.6,6.1,29.87,WNW,297,0.0,4.8,78,0.00,,SCT019,0.00,VWS V14.01,2014-02-15 08:47:00,
2014-02-15 03:52:00,11.4,5.9,29.87,WNW,297,0.0,0.0,78,0.00,,SCT019,0.00,VWS V14.01,2014-02-15 08:52:00,
2014-02-15 03:57:00,11.1,5.6,29.87,NNW,342,4.8,6.4,78,0.00,,SCT019,0.00,VWS V14.01,2014-02-15 08:57:00,
2014-02-15 04:02:00,10.5,5.0,29.87,NW,308,0.0,0.0,78,0.00,,CLR,0.00,VWS V14.01,2014-02-15 09:02:00,
2014-02-15 04:07:00,10.3,4.9,29.87,WNW,292,0.0,7.2,78,0.00,,CLR,0.00,VWS V14.01,2014-02-15 09:07:00,
2014-02-15 04:12:00,10.2,4.7,29.87,WNW,293,7.2,7.2,78,0.00,,CLR,0.00,VWS V14.01,2014-02-15 09:12:00,
2014-02-15 04:17:00,10.0,4.5,29.87,NW,308,5.6,11.3,78,0.00,,CLR,0.00,VWS V14.01,2014-02-15 09:17:00,
2014-02-15 04:22:00,9.8,4.3,29.87,WNW,290,4.8,10.5,78,0.00,,CLR,0.00,VWS V14.01,2014-02-15 09:22:00,
2014-02-15 04:27:00,9.8,4.3,29.87,NW,308,0.0,6.4,78,0.00,,CLR,0.00,VWS V14.01,2014-02-15 09:27:00,
2014-02-15 04:32:00,9.4,4.0,29.87,WNW,296,6.4,6.4,78,0.00,,CLR,0.00,VWS V14.01,2014-02-15 09:32:00,
2014-02-15 04:37:00,9.3,3.8,29.90,NW,308,0.0,7.2,78,0.00,,CLR,0.00,VWS V14.01,2014-02-15 09:37:00,
2014-02-15 04:42:00,9.1,3.6,29.90,WNW,282,4.8,5.6,78,0.00,,CLR,0.00,VWS V14.01,2014-02-15 09:42:00,
2014-02-15 04:47:00,8.9,3.5,29.90,NW,315,6.4,10.5,78,0.00,,CLR,0.00,VWS V14.01,2014-02-15 09:47:00,
2014-02-15 04:53:00,8.7,3.3,29.90,NNW,328,5.6,5.6,78,0.00,,CLR,0.00,VWS V14.01,2014-02-15 09:53:00,
2014-02-15 04:58:00,8.5,3.1,29.90,WNW,285,0.0,7.2,78,0.00,,CLR,0.00,VWS V14.01,2014-02-15 09:58:00,
2014-02-15 05:03:00,8.4,2.9,29.90,WNW,292,6.4,7.2,78,0.00,,CLR,0.00,VWS V14.01,2014-02-15 10:03:00,
2014-02-15 05:08:00,8.2,2.8,29.90,WNW,282,4.8,9.7,78,0.00,,CLR,0.00,VWS V14.01,2014-02-15 10:08:00,
2014-02-15 05:13:00,8.0,2.6,29.90,WNW,296,8.9,8.9,78,0.00,,CLR,0.00,VWS V14.01,2014-02-15 10:13:00,
2014-02-15 05:18:00,7.8,2.4,29.90,WNW,292,0.0,8.1,78,0.00,,CLR,0.00,VWS V14.01,2014-02-15 10:18:00,
2014-02-15 05:23:00,7.6,2.2,29.93,WNW,292,4.8,6.4,78,0.00,,CLR,0.00,VWS V14.01,2014-02-15 10:23:00,
2014-02-15 05:24:00,7.6,2.2,29.93,WNW,300,4.8,6.4,78,0.00,,CLR,0.00,VWS V14.01,2014-02-15 10:24:00,
2014-02-15 05:29:00,7.5,2.1,29.93,WNW,292,5.6,9.7,78,0.00,,CLR,0.00,VWS V14.01,2014-02-15 10:29:00,
2014-02-15 05:32:00,7.5,2.1,29.93,WNW,290,8.9,8.9,78,0.00,,CLR,0.00,VWS V14.01,2014-02-15 10:32:00,
2014-02-15 05:35:00,7.3,1.9,29.93,WNW,287,4.0,8.9,78,0.00,,CLR,0.00,VWS V14.01,2014-02-15 10:35:00,
2014-02-15 05:39:00,7.3,1.9,29.93,WNW,287,4.8,5.6,78,0.00,,CLR,0.00,VWS V14.01,2014-02-15 10:39:00,
2014-02-15 05:42:00,7.1,1.7,29.93,WNW,289,4.0,6.4,78,0.00,,CLR,0.00,VWS V14.01,2014-02-15 10:42:00,
2014-02-15 05:44:00,7.1,1.7,29.93,WNW,289,0.0,6.4,78,0.00,,CLR,0.00,VWS V14.01,2014-02-15 10:44:00,
2014-02-15 05:45:00,6.9,1.5,29.93,WNW,294,6.4,6.4,78,0.00,,CLR,0.00,VWS V14.01,2014-02-15 10:45:00,
2014-02-15 05:49:00,6.7,1.4,29.93,WNW,293,6.4,7.2,78,0.00,,CLR,0.00,VWS V14.01,2014-02-15 10:49:00,
2014-02-15 05:50:00,6.7,1.4,29.93,WNW,293,0.0,6.4,78,0.00,,CLR,0.00,VWS V14.01,2014-02-15 10:50:00,
2014-02-15 05:52:00,6.7,1.4,29.93,WNW,293,0.0,6.4,78,0.00,,CLR,0.00,VWS V14.01,2014-02-15 10:52:00,
2014-02-15 05:56:00,6.6,1.2,29.93,WNW,293,0.0,0.0,78,0.00,,CLR,0.00,VWS V14.01,2014-02-15 10:56:00,
2014-02-15 05:59:00,6.4,1.0,29.93,WNW,293,0.0,0.0,78,0.00,,CLR,0.00,VWS V14.01,2014-02-15 10:59:00,
2014-02-15 06:02:00,6.2,0.8,29.93,WNW,293,0.0,0.0,78,0.00,,CLR,0.00,VWS V14.01,2014-02-15 11:02:00,
2014-02-15 06:07:00,6.0,0.7,29.93,WNW,293,0.0,6.4,78,0.00,,CLR,0.00,VWS V14.01,2014-02-15 11:07:00,
2014-02-15 06:09:00,6.0,0.7,29.93,WNW,293,5.6,6.4,78,0.00,,CLR,0.00,VWS V14.01,2014-02-15 11:09:00,
2014-02-15 06:10:00,5.8,0.5,29.93,WNW,293,4.8,4.8,78,0.00,,CLR,0.00,VWS V14.01,2014-02-15 11:10:00,
2014-02-15 06:15:00,5.7,0.3,29.93,WNW,295,4.0,7.2,78,0.00,,CLR,0.00,VWS V14.01,2014-02-15 11:15:00,
2014-02-15 06:18:00,5.7,0.3,29.93,WNW,295,4.8,7.2,78,0.00,,CLR,0.00,VWS V14.01,2014-02-15 11:18:00,
2014-02-15 06:19:00,5.7,0.3,29.93,WNW,295,0.0,7.2,78,0.00,,CLR,0.00,VWS V14.01,2014-02-15 11:19:00,
2014-02-15 06:20:00,5.7,0.3,29.96,WNW,295,0.0,0.0,78,0.00,,CLR,0.00,VWS V14.01,2014-02-15 11:20:00,
2014-02-15 06:24:00,5.5,0.1,29.96,WNW,296,4.8,7.2,78,0.00,,CLR,0.00,VWS V14.01,2014-02-15 11:24:00,
2014-02-15 06:25:00,5.5,0.1,29.96,West,280,4.8,5.6,78,0.00,,CLR,0.00,VWS V14.01,2014-02-15 11:25:00,
2014-02-15 06:28:00,5.5,0.1,29.96,WNW,291,5.6,7.2,78,0.00,,CLR,0.00,VWS V14.01,2014-02-15 11:28:00,
2014-02-15 06:31:00,5.3,0.0,29.96,WNW,291,4.8,5.6,78,0.00,,CLR,0.00,VWS V14.01,2014-02-15 11:31:00,
2014-02-15 06:36:00,5.3,0.0,29.96,West,279,4.8,5.6,78,0.00,,CLR,0.00,VWS V14.01,2014-02-15 11:36:00,
2014-02-15 06:37:00,5.3,0.0,29.96,WNW,292,4.8,5.6,78,0.00,,CLR,0.00,VWS V14.01,2014-02-15 11:37:00,
2014-02-15 06:38:00,5.3,0.0,29.96,WNW,292,4.8,5.6,78,0.00,,CLR,0.00,VWS V14.01,2014-02-15 11:38:00,
2014-02-15 06:43:00,5.3,0.0,29.96,WNW,292,0.0,4.8,78,0.00,,CLR,0.00,VWS V14.01,2014-02-15 11:43:00,
2014-02-15 06:45:00,5.3,0.0,29.96,WNW,292,0.0,0.0,78,0.00,,CLR,0.00,VWS V14.01,2014-02-15 11:45:00,
2014-02-15 06:48:00,5.1,-0.2,29.96,WNW,292,0.0,0.0,78,0.00,,CLR,0.00,VWS V14.01,2014-02-15 11:48:00,
2014-02-15 06:50:00,4.9,-0.4,29.96,WNW,292,0.0,0.0,78,0.00,,CLR,0.00,VWS V14.01,2014-02-15 11:50:00,
2014-02-15 06:55:00,4.9,-0.4,29.96,WNW,292,5.6,5.6,78,0.00,,CLR,0.00,VWS V14.01,2014-02-15 11:55:00,
2014-02-15 07:00:00,4.8,-0.6,29.96,WNW,292,0.0,0.0,78,0.00,,CLR,0.00,VWS V14.01,2014-02-15 12:00:00,
2014-02-15 07:05:00,4.6,-0.7,29.96,WNW,292,0.0,0.0,78,0.00,,CLR,0.00,VWS V14.01,2014-02-15 12:05:00,
2014-02-15 07:08:00,4.4,-0.9,29.96,WNW,292,0.0,6.4,78,0.00,,CLR,0.00,VWS V14.01,2014-02-15 12:08:00,
2014-02-15 07:09:00,4.4,-0.9,29.96,WNW,292,0.0,6.4,78,0.00,,CLR,0.00,VWS V14.01,2014-02-15 12:09:00,
2014-02-15 07:12:00,4.4,-0.9,29.96,WNW,292,0.0,5.6,78,0.00,,CLR,0.00,VWS V14.01,2014-02-15 12:12:00,
2014-02-15 07:15:00,4.2,-1.1,29.96,WNW,292,4.8,4.8,78,0.00,,CLR,0.00,VWS V14.01,2014-02-15 12:15:00,
2014-02-15 07:18:00,4.0,-1.3,29.96,WNW,292,5.6,5.6,78,0.00,,CLR,0.00,VWS V14.01,2014-02-15 12:18:00,
2014-02-15 07:22:00,4.0,-1.3,29.96,WNW,292,0.0,5.6,78,0.00,,CLR,0.00,VWS V14.01,2014-02-15 12:22:00,
2014-02-15 07:23:00,4.0,-1.3,29.96,WNW,292,0.0,5.6,78,0.00,,CLR,0.00,VWS V14.01,2014-02-15 12:23:00,
2014-02-15 07:28:00,3.9,-1.4,29.96,WNW,292,0.0,0.0,78,0.00,,CLR,0.00,VWS V14.01,2014-02-15 12:28:00,
2014-02-15 07:30:00,3.9,-1.4,29.96,WNW,292,0.0,0.0,78,0.00,,CLR,0.00,VWS V14.01,2014-02-15 12:30:00,
2014-02-15 07:34:00,3.9,-1.4,29.96,WNW,292,0.0,0.0,78,0.00,,CLR,0.00,VWS V14.01,2014-02-15 12:34:00,
2014-02-15 07:37:00,3.7,-1.6,29.96,WNW,292,0.0,0.0,78,0.00,,CLR,0.00,VWS V14.01,2014-02-15 12:37:00,
2014-02-15 07:40:00,3.5,-1.8,29.96,WNW,292,0.0,0.0,78,0.00,,CLR,0.00,VWS V14.01,2014-02-15 12:40:00,
2014-02-15 07:42:00,3.5,-1.8,29.96,WNW,292,0.0,0.0,78,0.00,,CLR,0.00,VWS V14.01,2014-02-15 12:42:00,
2014-02-15 07:45:00,3.5,-1.8,29.96,WNW,292,0.0,0.0,78,0.00,,CLR,0.00,VWS V14.01,2014-02-15 12:45:00,
2014-02-15 07:47:00,3.3,-2.0,29.96,WNW,292,0.0,0.0,78,0.00,,CLR,0.00,VWS V14.01,2014-02-15 12:47:00,
2014-02-15 07:50:00,3.1,-2.1,29.98,WNW,292,0.0,0.0,78,0.00,,CLR,0.00,VWS V14.01,2014-02-15 12:50:00,
2014-02-15 07:52:00,3.1,-2.1,29.98,WNW,292,0.0,0.0,78,0.00,,CLR,0.00,VWS V14.01,2014-02-15 12:52:00,
2014-02-15 07:55:00,3.1,-2.1,29.98,WNW,292,0.0,0.0,78,0.00,,CLR,0.00,VWS V14.01,2014-02-15 12:55:00,
2014-02-15 07:58:00,3.1,-2.1,29.98,WNW,292,0.0,0.0,78,0.00,,CLR,0.00,VWS V14.01,2014-02-15 12:58:00,
2014-02-15 08:03:00,3.1,-2.1,29.98,WNW,292,0.0,0.0,78,0.00,,CLR,0.00,VWS V14.01,2014-02-15 13:03:00,
2014-02-15 08:04:00,3.1,-2.1,29.98,WNW,292,0.0,0.0,78,0.00,,CLR,0.00,VWS V14.01,2014-02-15 13:04:00,
2014-02-15 08:05:00,3.1,-2.1,29.98,WNW,292,0.0,0.0,78,0.00,,CLR,0.00,VWS V14.01,2014-02-15 13:05:00,
2014-02-15 08:07:00,3.1,-2.1,29.98,WNW,292,0.0,0.0,78,0.00,,CLR,0.00,VWS V14.01,2014-02-15 13:07:00,
2014-02-15 08:09:00,3.1,-2.1,29.98,WNW,292,0.0,0.0,78,0.00,,CLR,0.00,VWS V14.01,2014-02-15 13:09:00,
2014-02-15 08:10:00,3.1,-2.1,29.98,WNW,292,0.0,0.0,78,0.00,,CLR,0.00,VWS V14.01,2014-02-15 13:10:00,
2014-02-15 08:12:00,3.1,-2.1,29.98,WNW,292,0.0,0.0,78,0.00,,CLR,0.00,VWS V14.01,2014-02-15 13:12:00,
2014-02-15 08:15:00,3.1,-2.1,29.98,WNW,292,0.0,0.0,78,0.00,,CLR,0.00,VWS V14.01,2014-02-15 13:15:00,
2014-02-15 08:21:00,3.1,-2.1,29.98,WNW,292,0.0,0.0,78,0.00,,CLR,0.00,VWS V14.01,2014-02-15 13:21:00,
2014-02-15 08:22:00,3.1,-2.1,29.98,WNW,292,0.0,0.0,78,0.00,,CLR,0.00,VWS V14.01,2014-02-15 13:22:00,
2014-02-15 08:26:00,3.3,-2.0,29.98,WNW,292,0.0,4.0,78,0.00,,CLR,0.00,VWS V14.01,2014-02-15 13:26:00,
2014-02-15 08:29:00,3.5,-1.8,29.98,WNW,292,0.0,4.8,78,0.00,,CLR,0.00,VWS V14.01,2014-02-15 13:29:00,
2014-02-15 08:30:00,3.5,-1.8,29.98,WNW,292,4.8,4.8,78,0.00,,CLR,0.00,VWS V14.01,2014-02-15 13:30:00,
2014-02-15 08:35:00,3.9,-1.4,29.98,WNW,292,4.8,5.6,78,0.00,,CLR,0.00,VWS V14.01,2014-02-15 13:35:00,
2014-02-15 08:37:00,4.0,-1.3,29.98,WNW,292,0.0,5.6,78,0.00,,CLR,0.00,VWS V14.01,2014-02-15 13:37:00,
2014-02-15 08:39:00,4.2,-1.1,29.98,WNW,292,0.0,5.6,78,0.00,,CLR,0.00,VWS V14.01,2014-02-15 13:39:00,
2014-02-15 08:42:00,4.4,-0.9,29.98,WNW,292,0.0,0.0,78,0.00,,CLR,0.00,VWS V14.01,2014-02-15 13:42:00,
2014-02-15 08:46:00,4.6,-0.7,29.98,WNW,292,4.8,6.4,78,0.00,,CLR,0.00,VWS V14.01,2014-02-15 13:46:00,
2014-02-15 08:47:00,4.8,-0.6,29.98,WNW,292,4.8,6.4,78,0.00,,CLR,0.00,VWS V14.01,2014-02-15 13:47:00,
2014-02-15 08:48:00,4.8,-0.6,29.98,WNW,292,6.4,6.4,78,0.00,,CLR,0.00,VWS V14.01,2014-02-15 13:48:00,
2014-02-15 08:52:00,4.9,-0.4,29.98,West,274,6.4,6.4,78,0.00,,CLR,0.00,VWS V14.01,2014-02-15 13:52:00,
2014-02-15 08:56:00,5.3,0.0,29.98,WNW,296,8.9,8.9,78,0.00,,CLR,0.00,VWS V14.01,2014-02-15 13:56:00,
2014-02-15 08:59:00,5.5,0.1,29.98,WNW,290,0.0,8.9,78,0.00,,CLR,0.00,VWS V14.01,2014-02-15 13:59:00,
2014-02-15 09:00:00,5.7,0.3,29.98,WNW,290,0.0,0.0,78,0.00,,CLR,0.00,VWS V14.01,2014-02-15 14:00:00,
2014-02-15 09:05:00,5.8,0.5,29.98,WNW,283,5.6,6.4,78,0.00,,CLR,0.00,VWS V14.01,2014-02-15 14:05:00,
2014-02-15 09:07:00,6.2,0.8,29.98,West,281,4.8,7.2,78,0.00,,CLR,0.00,VWS V14.01,2014-02-15 14:07:00,
2014-02-15 09:08:00,6.2,0.8,29.98,West,281,4.8,7.2,78,0.00,,CLR,0.00,VWS V14.01,2014-02-15 14:08:00,
2014-02-15 09:13:00,6.6,1.2,29.98,WNW,295,4.8,7.2,78,0.00,,CLR,0.00,VWS V14.01,2014-02-15 14:13:00,
2014-02-15 09:15:00,6.7,1.4,29.98,WNW,285,7.2,7.2,78,0.00,,CLR,0.00,VWS V14.01,2014-02-15 14:15:00,
2014-02-15 09:18:00,6.9,1.5,29.98,West,271,8.9,8.9,78,0.00,,CLR,0.00,VWS V14.01,2014-02-15 14:18:00,
2014-02-15 09:19:00,7.1,1.7,29.98,WNW,293,5.6,8.9,78,0.00,,CLR,0.00,VWS V14.01,2014-02-15 14:19:00,
2014-02-15 09:24:00,7.3,1.9,29.98,West,277,10.5,10.5,78,0.00,,CLR,0.00,VWS V14.01,2014-02-15 14:24:00,
2014-02-15 09:27:00,7.5,2.1,29.98,West,279,5.6,11.3,78,0.00,,CLR,0.00,VWS V14.01,2014-02-15 14:27:00,
2014-02-15 09:28:00,7.5,2.1,29.98,WNW,286,6.4,11.3,78,0.00,,CLR,0.00,VWS V14.01,2014-02-15 14:28:00,
2014-02-15 09:32:00,7.8,2.4,29.98,WNW,293,6.4,8.9,78,0.00,,CLR,0.00,VWS V14.01,2014-02-15 14:32:00,
2014-02-15 09:37:00,8.2,2.8,29.98,West,279,4.8,11.3,78,0.00,,CLR,0.00,VWS V14.01,2014-02-15 14:37:00,
2014-02-15 09:40:00,8.4,2.9,29.98,WNW,297,6.4,6.4,78,0.00,,CLR,0.00,VWS V14.01,2014-02-15 14:40:00,
2014-02-15 09:44:00,8.7,3.3,29.98,WNW,285,9.7,9.7,78,0.00,,CLR,0.00,VWS V14.01,2014-02-15 14:44:00,
2014-02-15 09:47:00,8.9,3.5,29.98,West,280,6.4,9.7,78,0.00,,CLR,0.00,VWS V14.01,2014-02-15 14:47:00,
2014-02-15 09:52:00,9.1,3.6,29.98,West,278,6.4,8.9,78,0.00,,CLR,0.00,VWS V14.01,2014-02-15 14:52:00,
2014-02-15 09:54:00,9.3,3.8,29.98,West,281,5.6,8.9,78,0.00,,CLR,0.00,VWS V14.01,2014-02-15 14:54:00,
2014-02-15 09:55:00,9.3,3.8,29.98,West,263,7.2,7.2,78,0.00,,CLR,0.00,VWS V14.01,2014-02-15 14:55:00,
2014-02-15 10:00:00,9.4,4.0,29.98,West,266,8.9,11.3,78,0.00,,CLR,0.00,VWS V14.01,2014-02-15 15:00:00,
2014-02-15 10:01:00,9.4,4.0,29.98,WNW,282,8.9,11.3,78,0.00,,CLR,0.00,VWS V14.01,2014-02-15 15:01:00,
2014-02-15 10:02:00,9.4,4.0,29.98,WNW,289,5.6,11.3,78,0.00,,CLR,0.00,VWS V14.01,2014-02-15 15:02:00,
2014-02-15 10:05:00,9.6,4.2,30.01,West,277,10.5,10.5,78,0.00,,CLR,0.00,VWS V14.01,2014-02-15 15:05:00,
2014-02-15 10:10:00,9.8,4.3,30.01,West,266,7.2,7.2,78,0.00,,CLR,0.00,VWS V14.01,2014-02-15 15:10:00,
2014-02-15 10:11:00,9.8,4.3,30.01,WNW,282,7.2,10.5,78,0.00,,CLR,0.00,VWS V14.01,2014-02-15 15:11:00,
2014-02-15 10:12:00,9.8,4.3,30.01,WNW,287,8.9,10.5,78,0.00,,CLR,0.00,VWS V14.01,2014-02-15 15:12:00,
2014-02-15 10:17:00,10.0,4.5,30.01,West,269,7.2,10.5,78,0.00,,CLR,0.00,VWS V14.01,2014-02-15 15:17:00,
2014-02-15 10:22:00,10.3,4.9,29.98,WNW,299,6.4,9.7,78,0.00,,CLR,0.00,VWS V14.01,2014-02-15 15:22:00,
2014-02-15 10:24:00,10.3,4.9,29.98,West,280,6.4,6.4,78,0.00,,CLR,0.00,VWS V14.01,2014-02-15 15:24:00,
2014-02-15 10:29:00,10.5,5.0,29.98,West,273,9.7,9.7,78,0.00,,CLR,0.00,VWS V14.01,2014-02-15 15:29:00,
2014-02-15 10:32:00,10.7,5.2,29.98,WNW,283,10.5,10.5,78,0.00,,CLR,0.00,VWS V14.01,2014-02-15 15:32:00,
2014-02-15 10:33:00,10.7,5.2,29.98,WNW,288,9.7,10.5,78,0.00,,CLR,0.00,VWS V14.01,2014-02-15 15:33:00,
2014-02-15 10:35:00,10.7,5.2,29.98,WNW,294,7.2,7.2,78,0.00,,CLR,0.00,VWS V14.01,2014-02-15 15:35:00,
2014-02-15 10:36:00,10.9,5.4,29.98,WSW,252,5.6,8.9,78,0.00,,CLR,0.00,VWS V14.01,2014-02-15 15:36:00,
2014-02-15 10:39:00,10.9,5.4,29.98,WNW,283,6.4,10.5,78,0.00,,CLR,0.00,VWS V14.01,2014-02-15 15:39:00,
2014-02-15 10:43:00,11.1,5.6,29.98,WSW,244,5.6,7.2,78,0.00,,CLR,0.00,VWS V14.01,2014-02-15 15:43:00,
2014-02-15 10:48:00,11.4,5.9,29.98,WNW,301,7.2,9.7,78,0.00,,CLR,0.00,VWS V14.01,2014-02-15 15:48:00,
2014-02-15 10:49:00,11.4,5.9,29.98,WNW,283,7.2,9.7,78,0.00,,CLR,0.00,VWS V14.01,2014-02-15 15:49:00,
2014-02-15 10:52:00,11.6,6.1,29.98,WSW,257,4.8,8.1,78,0.00,,CLR,0.00,VWS V14.01,2014-02-15 15:52:00,
2014-02-15 10:54:00,11.6,6.1,29.98,WNW,288,8.1,8.9,78,0.00,,CLR,0.00,VWS V14.01,2014-02-15 15:54:00,
2014-02-15 10:55:00,11.6,6.1,29.98,WNW,289,5.6,6.4,78,0.00,,CLR,0.00,VWS V14.01,2014-02-15 15:55:00,
2014-02-15 10:59:00,12.0,6.4,29.98,West,265,4.8,7.2,78,0.00,,CLR,0.00,VWS V14.01,2014-02-15 15:59:00,
2014-02-15 11:00:00,12.0,6.4,29.98,West,271,4.8,6.4,78,0.00,,CLR,0.00,VWS V14.01,2014-02-15 16:00:00,
2014-02-15 11:05:00,12.1,6.6,30.01,WSW,251,6.4,7.2,78,0.00,,CLR,0.00,VWS V14.01,2014-02-15 16:05:00,
2014-02-15 11:06:00,12.1,6.6,30.01,West,260,10.5,10.5,78,0.00,,CLR,0.00,VWS V14.01,2014-02-15 16:06:00,
2014-02-15 11:11:00,12.1,6.6,30.01,West,265,7.2,8.1,78,0.00,,CLR,0.00,VWS V14.01,2014-02-15 16:11:00,
2014-02-15 11:17:00,12.3,6.8,30.01,WSW,255,7.2,11.3,78,0.00,,CLR,0.00,VWS V14.01,2014-02-15 16:17:00,
2014-02-15 11:18:00,12.3,6.8,30.01,West,262,4.8,11.3,78,0.00,,CLR,0.00,VWS V14.01,2014-02-15 16:18:00,
2014-02-15 11:19:00,12.5,7.0,30.01,West,280,5.6,11.3,78,0.00,,CLR,0.00,VWS V14.01,2014-02-15 16:19:00,
2014-02-15 11:20:00,12.5,7.0,30.01,West,268,8.9,8.9,78,0.00,,CLR,0.00,VWS V14.01,2014-02-15 16:20:00,
2014-02-15 11:21:00,12.5,7.0,30.01,West,272,7.2,8.9,78,0.00,,CLR,0.00,VWS V14.01,2014-02-15 16:21:00,
2014-02-15 11:22:00,12.7,7.2,30.01,West,278,7.2,8.9,78,0.00,,CLR,0.00,VWS V14.01,2014-02-15 16:22:00,
2014-02-15 11:23:00,12.7,7.2,30.01,WNW,285,8.1,8.9,78,0.00,,CLR,0.00,VWS V14.01,2014-02-15 16:23:00,
2014-02-15 11:25:00,12.7,7.2,30.01,WNW,293,9.7,9.7,78,0.00,,CLR,0.00,VWS V14.01,2014-02-15 16:25:00,
2014-02-15 11:29:00,12.9,7.3,30.01,WNW,300,5.6,9.7,78,0.00,,CLR,0.00,VWS V14.01,2014-02-15 16:29:00,
2014-02-15 11:31:00,13.0,7.5,30.01,WNW,291,7.2,11.3,78,0.00,,CLR,0.00,VWS V14.01,2014-02-15 16:31:00,
2014-02-15 11:34:00,13.2,7.7,30.01,WNW,283,9.7,11.3,78,0.00,,CLR,0.00,VWS V14.01,2014-02-15 16:34:00,
2014-02-15 11:39:00,13.4,8.2,30.01,WSW,248,8.1,9.7,79,0.00,,CLR,0.00,VWS V14.01,2014-02-15 16:39:00,
2014-02-15 11:41:00,13.6,8.4,30.01,West,276,6.4,10.5,79,0.00,,CLR,0.00,VWS V14.01,2014-02-15 16:41:00,
2014-02-15 11:43:00,13.6,8.4,30.01,WNW,299,7.2,10.5,79,0.00,,CLR,0.00,VWS V14.01,2014-02-15 16:43:00,
2014-02-15 11:45:00,13.8,8.5,30.01,West,277,8.9,8.9,79,0.00,,CLR,0.00,VWS V14.01,2014-02-15 16:45:00,
2014-02-15 11:46:00,13.8,8.5,30.01,West,274,7.2,8.9,79,0.00,,CLR,0.00,VWS V14.01,2014-02-15 16:46:00,
2014-02-15 11:48:00,13.8,8.5,30.01,WNW,290,10.5,11.3,79,0.00,,CLR,0.00,VWS V14.01,2014-02-15 16:48:00,
2014-02-15 11:50:00,13.9,8.7,30.01,West,280,5.6,11.3,79,0.00,,CLR,0.00,VWS V14.01,2014-02-15 16:50:00,
2014-02-15 11:52:00,13.9,8.7,30.01,NW,320,4.8,10.5,79,0.00,,CLR,0.00,VWS V14.01,2014-02-15 16:52:00,
2014-02-15 11:54:00,13.9,8.7,30.01,WNW,301,7.2,10.5,79,0.00,,CLR,0.00,VWS V14.01,2014-02-15 16:54:00,
2014-02-15 11:55:00,13.9,8.7,30.01,West,276,8.9,8.9,79,0.00,,CLR,0.00,VWS V14.01,2014-02-15 16:55:00,
2014-02-15 12:00:00,14.1,8.6,30.01,NW,315,5.6,6.4,78,0.00,,CLR,0.00,VWS V14.01,2014-02-15 17:00:00,
2014-02-15 12:03:00,14.1,8.6,30.01,WNW,290,8.9,11.3,78,0.00,,CLR,0.00,VWS V14.01,2014-02-15 17:03:00,
2014-02-15 12:08:00,14.3,8.7,30.01,SSW,211,4.8,10.5,78,0.00,,CLR,0.00,VWS V14.01,2014-02-15 17:08:00,
2014-02-15 12:13:00,14.3,8.7,30.01,WSW,252,5.6,9.7,78,0.00,,CLR,0.00,VWS V14.01,2014-02-15 17:13:00,
2014-02-15 12:18:00,14.5,8.9,30.01,West,262,6.4,9.7,78,0.00,,CLR,0.00,VWS V14.01,2014-02-15 17:18:00,
2014-02-15 12:23:00,14.7,9.1,30.01,West,280,8.9,8.9,78,0.00,,CLR,0.00,VWS V14.01,2014-02-15 17:23:00,
2014-02-15 12:28:00,14.7,9.1,30.01,West,267,7.2,7.2,78,0.00,,CLR,0.00,VWS V14.01,2014-02-15 17:28:00,
2014-02-15 12:33:00,14.8,9.2,30.01,West,260,6.4,7.2,78,0.00,,CLR,0.00,VWS V14.01,2014-02-15 17:33:00,
2014-02-15 12:38:00,15.0,9.4,30.01,West,277,8.9,8.9,78,0.00,,CLR,0.00,VWS V14.01,2014-02-15 17:38:00,
2014-02-15 12:43:00,15.4,9.8,30.01,West,274,5.6,8.9,78,0.00,,CLR,0.00,VWS V14.01,2014-02-15 17:43:00,
2014-02-15 12:48:00,15.6,9.6,30.01,WNW,297,6.4,9.7,77,0.00,,CLR,0.00,VWS V14.01,2014-02-15 17:48:00,
2014-02-15 12:53:00,15.7,9.8,30.01,WSW,256,5.6,9.7,77,0.00,,CLR,0.00,VWS V14.01,2014-02-15 17:53:00,
2014-02-15 12:58:00,15.9,10.0,30.01,West,261,8.9,9.7,77,0.00,,CLR,0.00,VWS V14.01,2014-02-15 17:58:00,
2014-02-15 13:03:00,16.1,10.1,30.01,West,268,4.8,9.7,77,0.00,,CLR,0.00,VWS V14.01,2014-02-15 18:03:00,
2014-02-15 13:08:00,16.3,10.3,30.01,WNW,284,5.6,8.9,77,0.00,,CLR,0.00,VWS V14.01,2014-02-15 18:08:00,
2014-02-15 13:13:00,16.3,10.3,30.01,WNW,284,7.2,9.7,77,0.00,,CLR,0.00,VWS V14.01,2014-02-15 18:13:00,
2014-02-15 13:18:00,16.5,10.5,30.01,WSW,248,6.4,9.7,77,0.00,,CLR,0.00,VWS V14.01,2014-02-15 18:18:00,
2014-02-15 13:23:00,16.8,10.8,30.01,WNW,290,7.2,14.5,77,0.00,,CLR,0.00,VWS V14.01,2014-02-15 18:23:00,
2014-02-15 13:29:00,17.0,11.0,30.01,SSW,213,4.0,7.2,77,0.00,,CLR,0.00,VWS V14.01,2014-02-15 18:29:00,
2014-02-15 13:34:00,17.4,11.4,30.01,WNW,298,9.7,10.5,77,0.00,,CLR,0.00,VWS V14.01,2014-02-15 18:34:00,
2014-02-15 13:39:00,17.5,11.5,30.01,West,259,4.8,9.7,77,0.00,,CLR,0.00,VWS V14.01,2014-02-15 18:39:00,
2014-02-15 13:44:00,17.7,11.7,30.01,West,272,0.0,9.7,77,0.00,,CLR,0.00,VWS V14.01,2014-02-15 18:44:00,
2014-02-15 13:49:00,17.9,11.9,30.01,WNW,292,4.8,9.7,77,0.00,,CLR,0.00,VWS V14.01,2014-02-15 18:49:00,
2014-02-15 13:54:00,18.1,12.1,29.98,WSW,257,6.4,11.3,77,0.00,,CLR,0.00,VWS V14.01,2014-02-15 18:54:00,
2014-02-15 13:59:00,18.1,11.7,29.98,WNW,290,4.8,9.7,76,0.00,,CLR,0.00,VWS V14.01,2014-02-15 18:59:00,
2014-02-15 14:04:00,18.1,11.7,29.98,West,269,6.4,9.7,76,0.00,,CLR,0.00,VWS V14.01,2014-02-15 19:04:00,
2014-02-15 14:09:00,18.1,11.7,30.01,WSW,237,4.8,7.2,76,0.00,,CLR,0.00,VWS V14.01,2014-02-15 19:09:00,
2014-02-15 14:14:00,18.3,11.9,30.01,WSW,253,5.6,8.9,76,0.00,,CLR,0.00,VWS V14.01,2014-02-15 19:14:00,
2014-02-15 14:19:00,18.6,12.2,30.01,West,274,5.6,7.2,76,0.00,,CLR,0.00,VWS V14.01,2014-02-15 19:19:00,
2014-02-15 14:24:00,18.8,12.4,30.01,West,269,4.8,8.9,76,0.00,,CLR,0.00,VWS V14.01,2014-02-15 19:24:00,
2014-02-15 14:29:00,19.0,12.6,30.01,SSW,207,11.3,18.1,76,0.00,,CLR,0.00,VWS V14.01,2014-02-15 19:29:00,
2014-02-15 14:34:00,19.0,12.6,30.01,SSW,198,5.6,11.3,76,0.00,,CLR,0.00,VWS V14.01,2014-02-15 19:34:00,
2014-02-15 14:39:00,19.2,12.4,29.98,WSW,245,4.8,12.9,75,0.00,,CLR,0.00,VWS V14.01,2014-02-15 19:39:00,
2014-02-15 14:44:00,19.3,12.6,29.98,WSW,246,11.3,13.7,75,0.00,,CLR,0.00,VWS V14.01,2014-02-15 19:44:00,
2014-02-15 14:49:00,19.3,12.6,29.98,SSE,163,4.8,13.7,75,0.00,,CLR,0.00,VWS V14.01,2014-02-15 19:49:00,
2014-02-15 14:54:00,19.5,12.8,29.98,WSW,258,4.8,13.7,75,0.00,,CLR,0.00,VWS V14.01,2014-02-15 19:54:00,
2014-02-15 14:59:00,19.7,12.9,29.98,SSW,209,8.9,15.7,75,0.00,,CLR,0.00,VWS V14.01,2014-02-15 19:59:00,
2014-02-15 15:04:00,19.7,12.9,29.98,SSW,193,14.5,14.5,75,0.00,,CLR,0.00,VWS V14.01,2014-02-15 20:04:00,
2014-02-15 15:09:00,19.9,13.1,29.98,SW,214,8.1,13.7,75,0.00,,CLR,0.00,VWS V14.01,2014-02-15 20:09:00,
2014-02-15 15:14:00,20.1,13.3,29.98,SW,218,12.9,14.5,75,0.00,,CLR,0.00,VWS V14.01,2014-02-15 20:14:00,
2014-02-15 15:19:00,20.2,13.5,29.98,South,191,9.7,10.5,75,0.00,,CLR,0.00,VWS V14.01,2014-02-15 20:19:00,
2014-02-15 15:24:00,20.2,13.5,29.98,SSW,209,10.5,11.3,75,0.00,,CLR,0.00,VWS V14.01,2014-02-15 20:24:00,
2014-02-15 15:29:00,20.4,13.6,29.98,SSW,199,7.2,14.5,75,0.00,,CLR,0.00,VWS V14.01,2014-02-15 20:29:00,
2014-02-15 15:34:00,20.6,13.8,29.98,SSW,207,4.8,10.5,75,0.00,,CLR,0.00,VWS V14.01,2014-02-15 20:34:00,
2014-02-15 15:39:00,20.8,14.0,29.98,SSW,193,5.6,12.1,75,0.00,,CLR,0.00,VWS V14.01,2014-02-15 20:39:00,
2014-02-15 15:44:00,21.0,14.2,29.98,SW,222,10.5,15.7,75,0.00,,CLR,0.00,VWS V14.01,2014-02-15 20:44:00,
2014-02-15 15:49:00,21.1,14.0,29.98,SSW,206,10.5,10.5,73,0.00,,CLR,0.00,VWS V14.01,2014-02-15 20:49:00,
2014-02-15 15:55:00,21.3,14.2,29.98,SSW,201,9.7,11.3,73,0.00,,CLR,0.00,VWS V14.01,2014-02-15 20:55:00,
2014-02-15 16:00:00,21.3,14.2,29.98,SSE,157,7.2,18.1,73,0.00,,CLR,0.00,VWS V14.01,2014-02-15 21:00:00,
2014-02-15 16:05:00,21.3,14.2,29.98,SSW,207,0.0,4.0,73,0.00,,CLR,0.00,VWS V14.01,2014-02-15 21:05:00,
2014-02-15 16:10:00,21.5,14.3,29.98,SW,220,14.9,15.7,73,0.00,,CLR,0.00,VWS V14.01,2014-02-15 21:10:00,
2014-02-15 16:15:00,21.7,14.5,29.98,SSE,156,4.8,5.6,73,0.00,,CLR,0.00,VWS V14.01,2014-02-15 21:15:00,
2014-02-15 16:20:00,21.9,14.7,29.98,WSW,238,4.8,4.8,73,0.00,,CLR,0.00,VWS V14.01,2014-02-15 21:20:00,
2014-02-15 16:25:00,22.0,14.9,29.98,SW,225,8.9,8.9,73,0.00,,CLR,0.00,VWS V14.01,2014-02-15 21:25:00,
2014-02-15 16:30:00,22.2,15.0,29.98,SSE,166,8.9,8.9,73,0.00,,CLR,0.00,VWS V14.01,2014-02-15 21:30:00,
2014-02-15 16:35:00,22.2,15.0,29.98,SW,225,6.4,8.9,73,0.00,,CLR,0.00,VWS V14.01,2014-02-15 21:35:00,
2014-02-15 16:40:00,22.2,15.0,29.98,WSW,251,7.2,9.7,73,0.00,,CLR,0.00,VWS V14.01,2014-02-15 21:40:00,
2014-02-15 16:45:00,22.0,14.9,29.98,SSW,205,11.3,11.3,73,0.00,,CLR,0.00,VWS V14.01,2014-02-15 21:45:00,
2014-02-15 16:50:00,21.9,14.7,29.98,WSW,238,4.0,7.2,73,0.00,,CLR,0.00,VWS V14.01,2014-02-15 21:50:00,
2014-02-15 16:55:00,21.7,14.5,29.98,SW,222,9.7,14.9,73,0.00,,CLR,0.00,VWS V14.01,2014-02-15 21:55:00,
2014-02-15 17:00:00,21.5,14.3,29.98,SSE,163,5.6,7.2,73,0.00,,CLR,0.00,VWS V14.01,2014-02-15 22:00:00,
2014-02-15 17:05:00,21.1,13.6,29.98,SSW,204,6.4,13.7,72,0.00,,CLR,0.00,VWS V14.01,2014-02-15 22:05:00,
2014-02-15 17:10:00,21.0,13.5,29.98,SW,217,9.7,10.5,72,0.00,,CLR,0.00,VWS V14.01,2014-02-15 22:10:00,
2014-02-15 17:15:00,20.8,13.3,29.98,SW,216,0.0,8.9,72,0.00,,CLR,0.00,VWS V14.01,2014-02-15 22:15:00,
2014-02-15 17:20:00,20.6,13.5,29.98,SSW,196,14.5,14.5,73,0.00,,CLR,0.00,VWS V14.01,2014-02-15 22:20:00,
2014-02-15 17:25:00,20.6,13.5,29.98,SSW,212,6.4,15.7,73,0.00,,CLR,0.00,VWS V14.01,2014-02-15 22:25:00,
2014-02-15 17:30:00,20.4,13.3,29.98,SSW,207,6.4,11.3,73,0.00,,CLR,0.00,VWS V14.01,2014-02-15 22:30:00,
2014-02-15 17:35:00,20.2,13.1,30.01,SSW,207,9.7,11.3,73,0.00,,CLR,0.00,VWS V14.01,2014-02-15 22:35:00,
2014-02-15 17:40:00,20.1,12.9,30.01,SSW,192,6.4,6.4,73,0.00,,CLR,0.00,VWS V14.01,2014-02-15 22:40:00,
2014-02-15 17:45:00,19.7,12.2,30.01,South,173,8.9,11.3,72,0.00,,CLR,0.00,VWS V14.01,2014-02-15 22:45:00,
2014-02-15 17:50:00,19.5,12.1,30.01,South,188,6.4,11.3,72,0.00,,CLR,0.00,VWS V14.01,2014-02-15 22:50:00,
2014-02-15 17:56:00,19.2,11.7,30.01,South,178,6.4,7.2,72,0.00,,CLR,0.00,VWS V14.01,2014-02-15 22:56:00,
2014-02-15 18:01:00,19.0,11.6,30.01,South,174,7.2,7.2,72,0.00,,CLR,0.00,VWS V14.01,2014-02-15 23:01:00,
2014-02-15 18:06:00,18.6,11.2,30.01,SSW,193,0.0,0.0,72,0.00,,CLR,0.00,VWS V14.01,2014-02-15 23:06:00,
2014-02-15 18:11:00,18.1,10.7,30.01,SSW,213,4.8,7.2,72,0.00,,CLR,0.00,VWS V14.01,2014-02-15 23:11:00,
2014-02-15 18:16:00,17.9,10.5,30.01,South,185,4.0,5.6,72,0.00,,CLR,0.00,VWS V14.01,2014-02-15 23:16:00,
2014-02-15 18:21:00,17.5,10.2,30.01,SSE,165,6.4,6.4,72,0.00,,CLR,0.00,VWS V14.01,2014-02-15 23:21:00,
2014-02-15 18:26:00,17.2,9.5,30.01,SSW,198,0.0,0.0,71,0.00,,CLR,0.00,VWS V14.01,2014-02-15 23:26:00,
2014-02-15 18:31:00,16.8,9.1,30.01,SW,230,0.0,0.0,71,0.00,,CLR,0.00,VWS V14.01,2014-02-15 23:31:00,
2014-02-15 18:36:00,16.5,8.8,30.01,South,183,0.0,0.0,71,0.00,,CLR,0.00,VWS V14.01,2014-02-15 23:36:00,
2014-02-15 18:41:00,16.1,8.4,30.01,SSW,200,0.0,0.0,71,0.00,,CLR,0.00,VWS V14.01,2014-02-15 23:41:00,
2014-02-15 18:46:00,15.7,8.1,30.01,SSW,200,0.0,0.0,71,0.00,,CLR,0.00,VWS V14.01,2014-02-15 23:46:00,
2014-02-15 18:51:00,15.4,7.7,30.01,SSW,200,0.0,0.0,71,0.00,,CLR,0.00,VWS V14.01,2014-02-15 23:51:00,
2014-02-15 18:56:00,15.2,7.6,30.01,SSW,200,0.0,0.0,71,0.00,,CLR,0.00,VWS V14.01,2014-02-15 23:56:00,
2014-02-15 19:01:00,14.8,7.2,30.01,SSW,200,0.0,0.0,71,0.00,,CLR,0.00,VWS V14.01,2014-02-16 00:01:00,
2014-02-15 19:06:00,14.5,6.8,30.01,SSW,200,0.0,0.0,71,0.00,,CLR,0.00,VWS V14.01,2014-02-16 00:06:00,
2014-02-15 19:11:00,14.1,6.5,30.01,SSW,200,0.0,0.0,71,0.00,,CLR,0.00,VWS V14.01,2014-02-16 00:11:00,
2014-02-15 19:16:00,13.8,5.8,30.01,SSW,200,0.0,0.0,70,0.00,,CLR,0.00,VWS V14.01,2014-02-16 00:16:00,
2014-02-15 19:21:00,13.6,5.6,30.01,SSW,200,0.0,0.0,70,0.00,,CLR,0.00,VWS V14.01,2014-02-16 00:21:00,
2014-02-15 19:26:00,13.2,5.6,30.01,SSW,200,0.0,0.0,71,0.00,,CLR,0.00,VWS V14.01,2014-02-16 00:26:00,
2014-02-15 19:31:00,13.0,5.5,30.01,SSW,200,0.0,0.0,71,0.00,,CLR,0.00,VWS V14.01,2014-02-16 00:31:00,
2014-02-15 19:36:00,12.9,5.3,30.01,SSW,200,0.0,0.0,71,0.00,,CLR,0.00,VWS V14.01,2014-02-16 00:36:00,
2014-02-15 19:41:00,12.9,5.3,30.01,SSW,200,0.0,0.0,71,0.00,,CLR,0.00,VWS V14.01,2014-02-16 00:41:00,
2014-02-15 19:46:00,12.7,5.1,30.01,SSW,200,0.0,0.0,71,0.00,,CLR,0.00,VWS V14.01,2014-02-16 00:46:00,
2014-02-15 19:51:00,12.7,5.1,30.01,SSW,200,0.0,0.0,71,0.00,,CLR,0.00,VWS V14.01,2014-02-16 00:51:00,
2014-02-15 19:56:00,12.7,5.1,30.01,SSW,200,0.0,0.0,71,0.00,,CLR,0.00,VWS V14.01,2014-02-16 00:56:00,
2014-02-15 20:01:00,12.7,5.1,30.01,SSW,200,0.0,0.0,71,0.00,,CLR,0.00,VWS V14.01,2014-02-16 01:01:00,
2014-02-15 20:06:00,12.7,5.1,30.01,SSW,200,0.0,0.0,71,0.00,,CLR,0.00,VWS V14.01,2014-02-16 01:06:00,
2014-02-15 20:11:00,12.7,5.1,30.01,SSW,200,0.0,0.0,71,0.00,,CLR,0.00,VWS V14.01,2014-02-16 01:11:00,
2014-02-15 20:16:00,12.9,5.3,30.01,SSW,200,0.0,0.0,71,0.00,,CLR,0.00,VWS V14.01,2014-02-16 01:16:00,
2014-02-15 20:22:00,12.9,5.3,30.01,SSW,200,0.0,0.0,71,0.00,,CLR,0.00,VWS V14.01,2014-02-16 01:22:00,
2014-02-15 20:27:00,12.9,5.3,30.01,SSW,192,0.0,0.0,71,0.00,,CLR,0.00,VWS V14.01,2014-02-16 01:27:00,
2014-02-15 20:32:00,13.0,5.5,30.01,SSW,192,0.0,0.0,71,0.00,,CLR,0.00,VWS V14.01,2014-02-16 01:32:00,
2014-02-15 20:37:00,13.0,5.5,30.01,SSW,192,0.0,0.0,71,0.00,,CLR,0.00,VWS V14.01,2014-02-16 01:37:00,
2014-02-15 20:42:00,13.0,5.5,30.01,SSW,192,0.0,0.0,71,0.00,,CLR,0.00,VWS V14.01,2014-02-16 01:42:00,
2014-02-15 20:47:00,13.0,5.5,30.01,SSW,192,0.0,0.0,71,0.00,,CLR,0.00,VWS V14.01,2014-02-16 01:47:00,
2014-02-15 20:52:00,13.0,5.5,30.01,SSW,192,0.0,0.0,71,0.00,,CLR,0.00,VWS V14.01,2014-02-16 01:52:00,
2014-02-15 20:57:00,13.0,5.5,30.01,SSW,192,0.0,0.0,71,0.00,,CLR,0.00,VWS V14.01,2014-02-16 01:57:00,
2014-02-15 21:02:00,13.0,5.5,30.01,SSW,192,0.0,0.0,71,0.00,,CLR,0.00,VWS V14.01,2014-02-16 02:02:00,
2014-02-15 21:07:00,13.0,5.5,30.01,SSW,192,0.0,0.0,71,0.00,,CLR,0.00,VWS V14.01,2014-02-16 02:07:00,
2014-02-15 21:12:00,12.9,5.3,30.01,SSW,192,0.0,0.0,71,0.00,,CLR,0.00,VWS V14.01,2014-02-16 02:12:00,
2014-02-15 21:17:00,12.9,5.3,30.01,SSW,192,0.0,0.0,71,0.00,,CLR,0.00,VWS V14.01,2014-02-16 02:17:00,
2014-02-15 21:22:00,12.9,5.3,30.01,SSW,192,0.0,0.0,71,0.00,,CLR,0.00,VWS V14.01,2014-02-16 02:22:00,
2014-02-15 21:27:00,12.9,5.3,30.01,SSW,192,0.0,0.0,71,0.00,,CLR,0.00,VWS V14.01,2014-02-16 02:27:00,
2014-02-15 21:32:00,12.9,5.3,30.01,SSW,192,0.0,0.0,71,0.00,,CLR,0.00,VWS V14.01,2014-02-16 02:32:00,
2014-02-15 21:37:00,12.9,5.3,30.01,SSW,192,0.0,0.0,71,0.00,,CLR,0.00,VWS V14.01,2014-02-16 02:37:00,
2014-02-15 21:42:00,12.7,5.1,30.01,SSW,192,0.0,0.0,71,0.00,,CLR,0.00,VWS V14.01,2014-02-16 02:42:00,
2014-02-15 21:47:00,12.9,5.3,30.01,SSW,192,0.0,0.0,71,0.00,,CLR,0.00,VWS V14.01,2014-02-16 02:47:00,
2014-02-15 21:52:00,12.9,5.3,30.01,SSW,192,0.0,0.0,71,0.00,,CLR,0.00,VWS V14.01,2014-02-16 02:52:00,
2014-02-15 21:57:00,12.7,5.1,30.01,SSW,192,0.0,0.0,71,0.00,,CLR,0.00,VWS V14.01,2014-02-16 02:57:00,
2014-02-15 22:02:00,12.7,5.1,30.01,SSW,192,0.0,0.0,71,0.00,,FEW120,0.00,VWS V14.01,2014-02-16 03:02:00,
2014-02-15 22:07:00,12.7,5.1,30.01,SSW,192,0.0,0.0,71,0.00,,FEW120,0.00,VWS V14.01,2014-02-16 03:07:00,
2014-02-15 22:12:00,12.7,5.1,30.01,SSW,192,0.0,0.0,71,0.00,,FEW120,0.00,VWS V14.01,2014-02-16 03:12:00,
2014-02-15 22:17:00,12.7,5.1,30.01,SSW,192,0.0,0.0,71,0.00,,FEW120,0.00,VWS V14.01,2014-02-16 03:17:00,
2014-02-15 22:22:00,12.7,5.1,30.01,SSW,192,0.0,0.0,71,0.00,,FEW120,0.00,VWS V14.01,2014-02-16 03:22:00,
2014-02-15 22:27:00,12.7,5.1,30.01,SSW,192,0.0,0.0,71,0.00,,FEW120,0.00,VWS V14.01,2014-02-16 03:27:00,
2014-02-15 22:32:00,12.7,5.1,30.01,SSW,192,0.0,0.0,71,0.00,,FEW120,0.00,VWS V14.01,2014-02-16 03:32:00,
2014-02-15 22:37:00,12.7,5.1,30.01,SSW,192,0.0,0.0,71,0.00,,FEW120,0.00,VWS V14.01,2014-02-16 03:37:00,
2014-02-15 22:42:00,12.5,4.9,30.01,SSW,192,0.0,0.0,71,0.00,,FEW120,0.00,VWS V14.01,2014-02-16 03:42:00,
2014-02-15 22:48:00,12.3,4.8,30.01,SSW,192,0.0,0.0,71,0.00,,FEW120,0.00,VWS V14.01,2014-02-16 03:48:00,
2014-02-15 22:53:00,12.3,4.8,30.01,SSW,192,0.0,0.0,71,0.00,,FEW120,0.00,VWS V14.01,2014-02-16 03:53:00,
2014-02-15 22:58:00,12.1,4.6,30.01,SSW,192,0.0,0.0,71,0.00,,FEW120,0.00,VWS V14.01,2014-02-16 03:58:00,
2014-02-15 23:03:00,12.0,4.4,30.01,SSW,192,0.0,0.0,71,0.00,,BKN110,0.00,VWS V14.01,2014-02-16 04:03:00,
2014-02-15 23:08:00,12.0,4.4,29.98,SSW,192,0.0,0.0,71,0.00,,BKN110,0.00,VWS V14.01,2014-02-16 04:08:00,
2014-02-15 23:13:00,11.8,4.2,29.98,SSW,192,0.0,0.0,71,0.00,,BKN110,0.00,VWS V14.01,2014-02-16 04:13:00,
2014-02-15 23:18:00,11.6,4.1,29.98,SSW,192,0.0,0.0,71,0.00,,BKN110,0.00,VWS V14.01,2014-02-16 04:18:00,
2014-02-15 23:23:00,11.6,4.1,29.98,SSW,192,0.0,0.0,71,0.00,,BKN110,0.00,VWS V14.01,2014-02-16 04:23:00,
2014-02-15 23:28:00,11.4,3.9,29.98,SSW,192,0.0,0.0,71,0.00,,BKN110,0.00,VWS V14.01,2014-02-16 04:28:00,
2014-02-15 23:33:00,11.2,3.7,29.98,SSW,192,0.0,0.0,71,0.00,,BKN110,0.00,VWS V14.01,2014-02-16 04:33:00,
2014-02-15 23:38:00,11.2,3.7,29.98,SSW,192,0.0,0.0,71,0.00,,BKN110,0.00,VWS V14.01,2014-02-16 04:38:00,
2014-02-15 23:43:00,11.1,3.6,29.98,SSW,192,0.0,0.0,71,0.00,,BKN110,0.00,VWS V14.01,2014-02-16 04:43:00,
2014-02-15 23:48:00,11.1,3.6,29.98,SSW,192,0.0,0.0,71,0.00,,BKN110,0.00,VWS V14.01,2014-02-16 04:48:00,
2014-02-15 23:53:00,10.9,3.4,29.98,SSW,192,0.0,0.0,71,0.00,,BKN110,0.00,VWS V14.01,2014-02-16 04:53:00,
2014-02-15 23:58:00,10.7,3.2,29.98,SSW,192,0.0,0.0,71,0.00,,BKN110,0.00,VWS V14.01,2014-02-16 04:58:00,